Regional Weather Roundup
Issued by NWS Goodland, KS

Home | Current Version | Previous Version | Text Only | Print | Product List | Glossary Off
Versions: 1 2 3 4 5 6 7 8 9 10 11 12 13 14 15 16 17 18 19 20 21 22 23 24 25 26 27 28 29 30 31 32 33 34 35 36 37 38 39 40 41 42 43 44 45 46 47 48 49 50

000
ASUS43 KGLD 110908
RWRGLD

GOODLAND FORECAST AREA HOURLY WEATHER ROUNDUP
NATIONAL WEATHER SERVICE GOODLAND KS
200 AM MST MON DEC 11 2017

...OFFICIAL OBSERVATIONS...

CITY           SKY/WX    TMP DP  RH WIND       PRES   REMARKS
GOODLAND KS    CLOUDY    30   2  30 W13       30.24S WCI  20
HILL CITY KS   CLEAR     39   9  29 W10G18    30.17F
IMPERIAL NEB   CLEAR     40   7  25 W18       30.22R
MCCOOK NEB     CLOUDY    36  10  34 W17       30.18S
AKRON CO       CLOUDY    31  -3  23 W15       30.30R
BURLINGTON CO  CLOUDY    27   2  34 W13       30.28R WCI  16
LIMON CO       CLOUDY    26  -4  27 NW5       30.32S
$$

...UNOFFICIAL OBSERVATIONS...

CITY           SKY/WX    TMP DP  RH WIND       PRES   REMARKS
COLBY KS       CLOUDY    34  10  37 W13       30.23S
LENORA KS        N/A     41  32  70 W10         N/A
NORTON KS      CLEAR     39   3  22 W17G24    30.15
SHARON SPRINGS   N/A     36   5  27 W12         N/A
TRENTON NEB      N/A     40  32  73 NW8         N/A
KIT CARSON CO    N/A     25  -1  32 CALM        N/A
YUMA CO        FAIR      28   3  34 W12       30.27S WCI  18
$$




USA.gov is the U.S. government's official web portal to all federal, state and local government web resources and services.